Regional Weather Roundup
Issued by NWS Cleveland, OH

Home | Current Version | Previous Version | Text Only | Print | Product List | Glossary Off
Versions: 1 2 3 4 5 6 7 8 9 10 11 12 13 14 15 16 17 18 19 20 21 22 23 24 25 26 27 28 29 30 31 32 33 34 35 36 37 38 39 40 41 42 43 44 45 46 47 48 49 50

000
ASUS41 KCLE 211002
RWRCLE
OHIO REGIONAL WEATHER ROUNDUP
NATIONAL WEATHER SERVICE CLEVELAND, OH
600 AM EDT FRI JUL 21 2017

NOTE: "FAIR" INDICATES FEW OR NO CLOUDS BELOW 12,000 FEET WITH NO
SIGNIFICANT WEATHER AND/OR OBSTRUCTIONS TO VISIBILITY.

OHZ001>008-015>018-024>027-034-035-043-044-211100-
   NORTHWEST OHIO

CITY           SKY/WX    TMP DP  RH WIND       PRES   REMARKS
DEFIANCE       MOCLDY   N/A N/A N/A N5        29.97S
FINDLAY        CLOUDY    74  70  87 CALM      29.96R FOG
TOLEDO EXPRESS CLOUDY    71  71 100 N3        29.95S
TOLEDO EXEC    CLEAR     73  72  96 CALM      29.96S FOG
LIMA           CLOUDY    75  75 100 CALM      29.97R FOG
$$

OHZ009>014-019>023-028>033-038-089-211100-
   NORTHEAST OHIO

CITY           SKY/WX    TMP DP  RH WIND       PRES   REMARKS
CLE-HOPKINS    PTCLDY    73  69  87 CALM      29.98R
CLE-LAKEFRONT  PTCLDY    75  70  84 SW3       29.94S
CUY CO. ARPT   NOT AVBL
LORAIN-ELYRIA  PTCLDY    70  65  84 CALM      29.97R
ASHTABULA      CLOUDY    68  68 100 CALM      29.97S
AKRON-CANTON   MOCLDY    72  68  87 CALM      29.99R
WOOSTER        MOCLDY    72  70  93 CALM      29.99R
MANSFIELD      PTCLDY    75  74  96 W6        29.98S
YOUNGSTOWN     PTCLDY    70  68  93 CALM      29.97R
$$

OHZ042-051>053-060>062-070>072-077>081-211100-
  SOUTHWEST OHIO

CITY           SKY/WX    TMP DP  RH WIND       PRES   REMARKS
CINC-COVINGTON CLOUDY    77  75  93 SW6       29.99S
CINC-LUNKEN    MOCLDY    75  74  96 SW3       29.98S
HAMILTON       CLOUDY    78  74  87 W3        29.99S
DAYTON         CLOUDY    77  73  87 SW12      29.99S
WRIGHT-PAT AFB MOCLDY    78  76  91 SW9       29.97S
DAYTON GENERAL CLOUDY    78  72  81 SW6       29.99R
WILMINGTON     CLOUDY    77  75  93 W6        29.98F
$$

OHZ036-037-039>041-045>050-054>059-063>069-073>076-082>088-211100-
  CENTRAL AND SOUTHEAST OHIO

CITY           SKY/WX    TMP DP  RH WIND       PRES   REMARKS
COLUMBUS       CLOUDY    79  75  87 CALM      29.96S
OSU AIRPORT    CLOUDY    77  75  93 CALM      29.97R
BOLTON FIELD   CLOUDY    77  73  90 W6        29.97F
RICKENBACK AFB CLOUDY    75  74  96 S5        29.97R
NEWARK         TSTM      74  70  87 SW8G21    29.98R FOG
MARION         CLOUDY    77  73  87 W5        29.97S FOG
LANCASTER      MOCLDY    77  73  87 W3        29.98R
ZANESVILLE     MOCLDY    73  71  93 CALM      29.98R FOG
NEW PHILLY     NOT AVBL
$$



USA.gov is the U.S. government's official web portal to all federal, state and local government web resources and services.